This is the latest recevied weather packets stored in our database for station/object N9WHM. If no packets are shown the sender has not sent any weather packets the latest 10 day(s).
| Time | Temp. | Humidity | Pressure | Rain* | Wind** | Luminosity | Snow |
|---|---|---|---|---|---|---|---|
| 1777595162 | 12.78° C | 34% | 1018.1 hPa | 0 mm | - | 60 W/m² | - |
| 1777594858 | 12.78° C | 33% | 1018.3 hPa | 0 mm | - | 69 W/m² | - |
| 1777594555 | 12.78° C | 34% | 1018.3 hPa | 0 mm | - | 77 W/m² | - |
| 1777594251 | 12.78° C | 34% | 1018.3 hPa | 0 mm | - | 87 W/m² | - |
| 1777593946 | 12.78° C | 34% | 1018.4 hPa | 0 mm | - | 96 W/m² | - |
| 1777593643 | 12.78° C | 36% | 1018.2 hPa | 0 mm | - | 107 W/m² | - |
| 1777593339 | 12.78° C | 35% | 1018.2 hPa | 0 mm | - | 118 W/m² | - |
| 1777593033 | 12.78° C | 35% | 1018.1 hPa | 0 mm | - | 129 W/m² | - |
| 1777592732 | 12.78° C | 37% | 1018.2 hPa | 0 mm | - | 141 W/m² | - |
| 1777592429 | 12.78° C | 37% | 1018.3 hPa | 0 mm | - | 153 W/m² | - |
| 1777592124 | 12.78° C | 37% | 1018.4 hPa | 0 mm | - | 167 W/m² | - |
| 1777591822 | 12.22° C | 38% | 1018.4 hPa | 0 mm | - | 181 W/m² | - |
| 1777591517 | 13.33° C | 38% | 1018.5 hPa | 0 mm | - | 196 W/m² | - |
| 1777591214 | 12.78° C | 36% | 1018.5 hPa | 0 mm | - | 228 W/m² | - |
| 1777590909 | 12.22° C | 37% | 1018.3 hPa | 0 mm | - | 227 W/m² | - |
| 1777590604 | 12.78° C | 37% | 1018.3 hPa | 0 mm | - | 83 W/m² | - |
| 1777590301 | 12.78° C | 36% | 1018.5 hPa | 0 mm | - | 275 W/m² | - |
| 1777589999 | 12.78° C | 37% | 1018.2 hPa | 0 mm | - | 290 W/m² | - |
| 1777589694 | 12.78° C | 36% | 1018.3 hPa | 0 mm | - | 299 W/m² | - |
| 1777589393 | 12.22° C | 38% | 1018.4 hPa | 0 mm | - | 174 W/m² | - |
| 1777589089 | 12.78° C | 37% | 1018.4 hPa | 0 mm | - | 164 W/m² | - |
| 1777588785 | 12.78° C | 38% | 1018.2 hPa | 0 mm | - | 361 W/m² | - |
| 1777588480 | 12.22° C | 37% | 1018.2 hPa | 0 mm | - | 195 W/m² | - |
| 1777588176 | 12.22° C | 37% | 1018.3 hPa | 0 mm | - | 179 W/m² | - |
| 1777587872 | 12.22° C | 38% | 1018.3 hPa | 0 mm | - | 186 W/m² | - |
* Rain latest hour (hover to see other rain measurements)
** Current wind speed in m/s (hover to see current wind gust speed)